Location: Cahas Mountain Overlook
(37.0833°N, 80.1000°W)
Time: 11:58:13
(UTC-05:00)

Courier 1B - Pass Details

Date: 16 December 2023
Orbit: 962 x 1209 km, 28.3° (Epoch: 29 February)

Event Time Altitude Azimuth Distance (km) Brightness Sun altitude
Rises 03:21:54 0° 214° (SW) 4,097 - -48.0°
Reaches altitude 10° 03:25:40 10° 198° (SSW) 3,131 - -47.2°
Maximum altitude 03:30:56 20° 155° (SSE) 2,459 - -46.2°
Exits shadow 03:32:50 18° 137° (SE) 2,545 9.9 -45.8°
Drops below altitude 10° 03:36:07 10° 112° (ESE) 3,077 10.6 -45.1°
Sets 03:39:46 0° 96° (E) 4,004 11.5 -44.4°
